Weather History for Rutland, VT

Change the Weather History Date:

Monday, January 7, 2013

  Actual Average Record
Temperature  
Mean Temperature 23 °F -  
Max Temperature 36 °F - 53 °F (2008)
Min Temperature 10 °F - -9 °F (1986)
Degree Days  
Heating Degree Days 42    
Month to date heating degree days 332  
Since 1 July heating degree days 2742  
Cooling Degree Days 0    
Month to date cooling degree days 0  
Year to date cooling degree days 0  
Moisture  
Dew Point 13 °F    
Average Humidity 76    
Maximum Humidity 96    
Minimum Humidity 55    
Precipitation  
Precipitation 0.00 in - 0.95 in (2002)
Month to date precipitation 0.00  
Year to date precipitation 0.00  
Sea Level Pressure  
Sea Level Pressure 30.24 in    
Wind  
Wind Speed 7 mph (NNE)    
Max Wind Speed 15 mph    
Max Gust Speed 16 mph    
Visibility 10 miles    
Events      
T = Trace of Precipitation, MM = Missing Value Source: NWS Daily Summary

Daily Weather History Graph

Daily Weather History Graph

Search for Another Location

Airport:

Trip Planner

Search our weather history database for the weather conditions in past years. The results will help you decide how hot, cold, wet, or windy it might be!

Date:

Astronomy

Jan. 07, 2013 Rise Set
Actual Time 7:24 AM EST 4:32 PM EST
Civil Twilight 6:52 AM EST 5:04 PM EST
Nautical Twilight 6:16 AM EST 5:40 PM EST
Astronomical Twilight 5:41 AM EST 6:14 PM EST
Moon 2:43 AM EST (1/7) 12:42 PM EST (1/7)
Length of Visible Light 10h 12m
Length of Day
9h 07m
Waning Crescent, 23% of the Moon is Illuminated
Jan 7
Waning Crescent
Jan 11
New
Jan 18
First Quarter
Jan 26
Full
Feb 3
Last Quarter

Hourly Weather History & Observations

Time (EST) Temp. Windchill Dew Point Humidity Pressure Visibility Wind Dir Wind Speed Gust Speed Precip Events Conditions
12:35 AM 35.6 °F 28.6 °F 26.6 °F 70% 29.93 in 10.0 mi SW 9.2 mph - N/A   Overcast
12:55 AM 35.6 °F 29.9 °F 26.6 °F 70% 29.93 in 10.0 mi WSW 6.9 mph - N/A   Overcast
1:55 AM 35.6 °F 28.6 °F 26.6 °F 70% 29.96 in 10.0 mi West 9.2 mph - N/A   Overcast
2:35 AM 26.6 °F 15.2 °F 23.0 °F 86% 30.00 in 8.0 mi North 13.8 mph - N/A   Overcast
2:55 AM 24.8 °F 12.4 °F 21.2 °F 86% 30.02 in 10.0 mi North 15.0 mph - N/A   Overcast
3:15 AM 21.2 °F 8.9 °F 19.4 °F 93% 30.03 in 10.0 mi North 12.7 mph - N/A   Overcast
3:35 AM 21.2 °F 10.1 °F 19.4 °F 93% 30.05 in 10.0 mi North 10.4 mph - N/A   Overcast
3:55 AM 21.2 °F 8.9 °F 15.8 °F 80% 30.07 in 10.0 mi North 12.7 mph 16.1 mph N/A   Overcast
4:35 AM 19.4 °F 9.5 °F 15.8 °F 86% 30.10 in 10.0 mi NNW 8.1 mph - N/A   Overcast
4:55 AM 19.4 °F 9.5 °F 15.8 °F 86% 30.11 in 10.0 mi North 8.1 mph - N/A   Overcast
5:15 AM 19.4 °F 8.6 °F 14.0 °F 80% 30.13 in 10.0 mi NNW 9.2 mph - N/A   Overcast
5:35 AM 17.6 °F 5.7 °F 15.8 °F 93% 30.15 in 10.0 mi North 10.4 mph - N/A   Overcast
5:55 AM 17.6 °F 8.2 °F 14.0 °F 86% 30.16 in 10.0 mi North 6.9 mph - N/A   Overcast
6:15 AM 17.6 °F 8.2 °F 15.8 °F 93% 30.17 in 10.0 mi NNE 6.9 mph - N/A   Overcast
6:55 AM 17.6 °F 8.2 °F 12.2 °F 79% 30.20 in 10.0 mi North 6.9 mph - N/A   Overcast
7:35 AM 17.6 °F 9.3 °F 12.2 °F 79% 30.22 in 10.0 mi North 5.8 mph - N/A   Overcast
7:55 AM 17.6 °F 12.3 °F 12.2 °F 79% 30.23 in 10.0 mi North 3.5 mph - N/A   Overcast
8:15 AM 17.6 °F 12.3 °F 15.8 °F 93% 30.25 in 10.0 mi North 3.5 mph - N/A   Overcast
8:35 AM 17.6 °F 12.3 °F 12.2 °F 79% 30.27 in 10.0 mi North 3.5 mph - N/A   Overcast
9:35 AM 19.4 °F - 12.2 °F 74% 30.31 in 10.0 mi Calm Calm - N/A   Overcast
9:55 AM 19.4 °F 10.4 °F 12.2 °F 74% 30.32 in 10.0 mi NNW 6.9 mph - N/A   Overcast
10:15 AM 19.4 °F 11.5 °F 12.2 °F 74% 30.33 in 10.0 mi North 5.8 mph - N/A   Overcast
10:35 AM 19.4 °F 14.3 °F 12.2 °F 74% 30.33 in 9.0 mi NNW 3.5 mph - N/A   Overcast
10:55 AM 19.4 °F 11.5 °F 12.2 °F 74% 30.32 in 10.0 mi North 5.8 mph - N/A   Overcast
11:15 AM 19.4 °F 11.5 °F 12.2 °F 74% 30.32 in 10.0 mi North 5.8 mph - N/A   Overcast
11:35 AM 19.4 °F 10.4 °F 12.2 °F 74% 30.32 in 10.0 mi North 6.9 mph - N/A   Overcast
11:55 AM 21.2 °F 16.4 °F 12.2 °F 68% 30.32 in 10.0 mi NNW 3.5 mph - N/A   Overcast
12:35 PM 21.2 °F 12.6 °F 12.2 °F 68% 30.32 in 10.0 mi North 6.9 mph - N/A   Overcast
1:35 PM 21.2 °F 14.9 °F 12.2 °F 68% 30.33 in 10.0 mi NE 4.6 mph - N/A   Clear
2:15 PM 23.0 °F - 12.2 °F 63% 30.32 in 10.0 mi Calm Calm - N/A   Clear
3:35 PM 24.8 °F - 12.2 °F 59% 30.34 in 10.0 mi Calm Calm - N/A   Clear
3:55 PM 26.6 °F - 12.2 °F 55% 30.34 in 10.0 mi Calm Calm - N/A   Clear
4:15 PM 24.8 °F - 10.4 °F 54% 30.33 in 10.0 mi Calm Calm - N/A   Clear
4:35 PM 23.0 °F - 12.2 °F 63% 30.33 in 10.0 mi Calm Calm - N/A   Clear
4:55 PM 19.4 °F - 10.4 °F 68% 30.34 in 10.0 mi Calm Calm - N/A   Clear
5:15 PM 19.4 °F - 12.2 °F 74% 30.34 in 10.0 mi Calm Calm - N/A   Clear
5:35 PM 19.4 °F - 14.0 °F 80% 30.34 in 10.0 mi Calm Calm - N/A   Clear
6:15 PM 17.6 °F 8.2 °F 10.4 °F 73% 30.32 in 10.0 mi SSE 6.9 mph - N/A   Clear
6:35 PM 15.8 °F 4.2 °F 12.2 °F 86% 30.33 in 10.0 mi SE 9.2 mph - N/A   Clear
6:55 PM 17.6 °F 5.7 °F 12.2 °F 79% 30.32 in 10.0 mi ESE 10.4 mph - N/A   Clear
8:15 PM 15.8 °F 2.7 °F 10.4 °F 79% 30.31 in 10.0 mi ESE 11.5 mph - N/A   Clear
8:35 PM 15.8 °F 2.7 °F 10.4 °F 79% 30.30 in 10.0 mi ESE 11.5 mph - N/A   Clear
8:55 PM 14.0 °F -0.8 °F 12.2 °F 93% 30.29 in 10.0 mi ESE 13.8 mph - N/A   Clear
9:15 PM 14.0 °F 0.5 °F 10.4 °F 86% 30.30 in 10.0 mi SE 11.5 mph - N/A   Clear
9:35 PM 12.2 °F -3.1 °F 6.8 °F 79% 30.30 in 10.0 mi ESE 13.8 mph - N/A   Clear
9:55 PM 12.2 °F -3.7 °F 8.6 °F 85% 30.30 in 10.0 mi ESE 15.0 mph - N/A   Clear
10:15 PM 10.4 °F -6.6 °F 6.8 °F 85% 30.29 in 10.0 mi ESE 16.1 mph - N/A   Clear
10:35 PM 12.2 °F -3.1 °F 8.6 °F 85% 30.29 in 10.0 mi ESE 13.8 mph - N/A   Clear
10:55 PM 12.2 °F -2.5 °F 10.4 °F 92% 30.27 in 10.0 mi ESE 12.7 mph - N/A   Clear
11:15 PM 12.2 °F -2.5 °F 10.4 °F 92% 30.27 in 10.0 mi ESE 12.7 mph - N/A   Clear
11:35 PM 12.2 °F -1.0 °F 8.6 °F 85% 30.27 in 10.0 mi ESE 10.4 mph - N/A   Clear
11:55 PM 12.2 °F 0.7 °F 8.6 °F 85% 30.26 in 10.0 mi ESE 8.1 mph - N/A   Clear